Cedar City, UT

12:26 AM MST on January 19, 2017 (GMT -0700)
Cedar City Regional

Weather History for KCDC - December, 2012

Change the Weather History Date:

Sunday, December 30, 2012

  Actual Average Record
Temperature  
Mean Temperature 19 °F 28 °F  
Max Temperature 25 °F 41 °F 58 °F (1980)
Min Temperature 13 °F 16 °F -14 °F (1990)
Degree Days  
Heating Degree Days 46 37  
Month to date heating degree days 1029 1085  
Since 1 July heating degree days 2165 2527  
Cooling Degree Days 0 0  
Month to date cooling degree days 0 0  
Year to date cooling degree days 715 588  
Moisture  
Dew Point 16 °F    
Average Humidity 76    
Maximum Humidity 91    
Minimum Humidity 60    
Precipitation  
Precipitation 0.11 in 0.03 in 0.37 in (1992)
Month to date precipitation 1.12 0.81  
Year to date precipitation 12.57 11.28  
Sea Level Pressure  
Sea Level Pressure 29.93 in    
Wind  
Wind Speed 3 mph (NNW)    
Max Wind Speed 10 mph    
Max Gust Speed 15 mph    
Visibility 4 miles    
Events Fog , Snow    
T = Trace of Precipitation, MM = Missing Value Source: NWS Daily Summary

Daily Weather History Graph

Daily Weather History Graph

Search for Another Location

Airport or City:

Trip Planner

Search our weather history database for the weather conditions in past years. The results will help you decide how hot, cold, wet, or windy it might be!

Date:

Astronomy

Dec. 30, 2012 Rise Set
Actual Time 7:47 AM MST 5:23 PM MST
Civil Twilight 7:18 AM MST 5:52 PM MST
Nautical Twilight 6:45 AM MST 6:25 PM MST
Astronomical Twilight 6:13 AM MST 6:57 PM MST
Moon 7:55 PM MST (12/30) 9:01 AM MST (12/30)
Length of Visible Light 10h 34m
Length of Day
9h 35m
Waning Gibbous, 95% of the Moon is Illuminated
Dec 30
Waning Gibbous
Jan 4
Last Quarter
Jan 11
New
Jan 18
First Quarter
Jan 26
Full

Hourly Weather History & Observations

Time (MST) Temp. Windchill Dew Point Humidity Pressure Visibility Wind Dir Wind Speed Gust Speed Precip Events Conditions
12:53 AM 16.0 °F - 10.9 °F 81% 30.00 in 10.0 mi Calm Calm - N/A   Mostly Cloudy
1:53 AM 18.0 °F - 12.0 °F 78% 29.99 in 10.0 mi Calm Calm - N/A   Overcast
2:53 AM 18.0 °F 9.8 °F 10.9 °F 74% 30.01 in 10.0 mi NNE 5.8 mph - N/A   Overcast
3:53 AM 16.0 °F 8.8 °F 10.0 °F 77% 30.01 in 10.0 mi NE 4.6 mph - N/A   Mostly Cloudy
4:53 AM 16.0 °F 10.4 °F 10.0 °F 77% 29.99 in 10.0 mi North 3.5 mph - N/A   Overcast
5:53 AM 14.0 °F - 8.1 °F 77% 29.99 in 10.0 mi Calm Calm - N/A   Clear
6:53 AM 17.1 °F - 10.0 °F 74% 30.02 in 10.0 mi Calm Calm - N/A   Overcast
7:53 AM 17.1 °F 11.7 °F 9.0 °F 71% 30.02 in 10.0 mi NE 3.5 mph - N/A   Overcast
8:53 AM 19.0 °F 13.9 °F 10.9 °F 71% 30.03 in 10.0 mi SW 3.5 mph - N/A   Overcast
9:53 AM 21.0 °F - 12.0 °F 68% 30.03 in 10.0 mi Calm Calm - N/A   Overcast
10:53 AM 23.0 °F - 12.9 °F 65% 30.04 in 10.0 mi Calm Calm - N/A   Overcast
11:53 AM 24.1 °F - 12.9 °F 62% 29.98 in 10.0 mi Calm Calm - N/A   Overcast
12:53 PM 25.0 °F 17.1 °F 15.1 °F 66% 29.96 in 10.0 mi WNW 6.9 mph - N/A   Overcast
1:32 PM 21.2 °F 12.6 °F 15.8 °F 80% 29.87 in 2.5 mi West 6.9 mph - 0.00 in Snow Light Snow
1:40 PM 21.2 °F 14.9 °F 15.8 °F 80% 29.86 in 1.2 mi WNW 4.6 mph - 0.00 in Snow Light Snow
1:50 PM 21.2 °F 14.9 °F 17.6 °F 86% 29.86 in 0.8 mi NW 4.6 mph - 0.00 in Snow Light Snow
1:53 PM 21.9 °F 15.7 °F 17.1 °F 82% 29.96 in 0.8 mi NW 4.6 mph - 0.00 in Snow Light Snow
2:13 PM 24.8 °F - 19.4 °F 80% 29.86 in 1.0 mi Calm Calm - 0.00 in Snow Light Snow
2:34 PM 24.8 °F - 19.4 °F 80% 29.85 in 0.8 mi Calm Calm - 0.01 in Snow Light Snow
2:53 PM 24.1 °F - 19.0 °F 81% 29.95 in 0.8 mi Calm Calm - 0.02 in Snow Light Snow
3:19 PM 23.0 °F - 19.4 °F 86% 29.85 in 1.0 mi Calm Calm - 0.01 in Snow Light Snow
3:53 PM 23.0 °F 18.4 °F 19.0 °F 85% 29.96 in 1.8 mi WSW 3.5 mph - 0.01 in Snow Light Snow
4:00 PM 23.0 °F 18.4 °F 19.4 °F 86% 29.85 in 1.8 mi SW 3.5 mph - 0.00 in Snow Light Snow
4:05 PM 23.0 °F 17.0 °F 19.4 °F 86% 29.85 in 2.0 mi SSW 4.6 mph - 0.00 in Snow Light Snow
4:10 PM 23.0 °F 18.4 °F 19.4 °F 86% 29.86 in 1.8 mi WSW 3.5 mph - 0.00 in Snow Light Snow
4:29 PM 23.0 °F - 19.4 °F 86% 29.85 in 0.5 mi Calm Calm - 0.01 in Fog , Snow Snow
4:48 PM 23.0 °F - 21.2 °F 93% 29.85 in 0.5 mi Calm Calm - 0.02 in Fog , Snow Snow
4:53 PM 23.0 °F - 21.0 °F 92% 29.96 in 0.8 mi Calm Calm - 0.02 in Snow Light Snow
4:58 PM 23.0 °F - 21.2 °F 93% 29.85 in 1.0 mi Calm Calm - 0.00 in Snow Light Snow
5:24 PM 23.0 °F - 19.4 °F 86% 29.85 in 1.5 mi Calm Calm - 0.00 in Snow Light Snow
5:42 PM 23.0 °F 18.4 °F 19.4 °F 86% 29.85 in 2.0 mi NNW 3.5 mph - 0.00 in Snow Light Snow
5:53 PM 23.0 °F 18.4 °F 19.9 °F 88% 29.97 in 1.8 mi NNW 3.5 mph - 0.01 in Snow Light Snow
6:01 PM 23.0 °F 18.4 °F 19.4 °F 86% 29.85 in 2.0 mi NNW 3.5 mph - 0.00 in Snow Light Snow
6:11 PM 23.0 °F 18.4 °F 19.4 °F 86% 29.86 in 2.5 mi North 3.5 mph - 0.00 in Snow Light Snow
6:20 PM 23.0 °F 13.1 °F 19.4 °F 86% 29.86 in 4.0 mi North 9.2 mph - 0.00 in Snow Light Snow
6:27 PM 21.2 °F 10.9 °F 17.6 °F 86% 29.87 in 4.0 mi NNE 9.2 mph - 0.00 in Snow Light Snow
6:44 PM 21.2 °F 11.7 °F 17.6 °F 86% 29.87 in 2.5 mi NNE 8.1 mph - 0.00 in Snow Light Snow
6:53 PM 21.0 °F 14.6 °F 18.0 °F 88% 29.99 in 2.5 mi NNE 4.6 mph - 0.00 in Snow Light Snow
7:02 PM 21.2 °F 14.9 °F 17.6 °F 86% 29.88 in 1.8 mi North 4.6 mph - 0.00 in Snow Light Snow
7:48 PM 21.2 °F 13.6 °F 17.6 °F 86% 29.89 in 2.5 mi North 5.8 mph - 0.01 in Snow Light Snow
7:53 PM 21.0 °F 12.4 °F 17.1 °F 85% 30.01 in 2.5 mi NNE 6.9 mph - 0.01 in Snow Light Snow
8:04 PM 19.4 °F 12.8 °F 17.6 °F 93% 29.90 in 2.5 mi Variable 4.6 mph - 0.00 in Snow Light Snow
8:14 PM 19.4 °F 10.4 °F 17.6 °F 93% 29.90 in 1.2 mi North 6.9 mph - 0.01 in Snow Light Snow
8:53 PM 19.9 °F 13.4 °F 17.1 °F 89% 30.02 in 1.2 mi NNE 4.6 mph - 0.02 in Snow Light Snow
9:06 PM 19.4 °F 10.4 °F 15.8 °F 86% 29.91 in 2.0 mi North 6.9 mph - 0.01 in Snow Light Snow
9:30 PM 19.4 °F 10.4 °F 15.8 °F 86% 29.92 in 3.0 mi North 6.9 mph - 0.01 in Snow Light Snow
9:42 PM 19.4 °F 11.5 °F 15.8 °F 86% 29.92 in 2.0 mi North 5.8 mph - 0.01 in Snow Light Snow
9:53 PM 19.0 °F 12.3 °F 16.0 °F 88% 30.03 in 2.0 mi North 4.6 mph - 0.01 in Snow Light Snow
10:53 PM 19.0 °F 13.9 °F 15.1 °F 85% 30.04 in 2.5 mi NNE 3.5 mph - 0.01 in Snow Light Snow
11:10 PM 17.6 °F - 15.8 °F 93% 29.94 in 2.0 mi Calm Calm - 0.00 in Snow Light Snow
11:23 PM 17.6 °F 10.7 °F 15.8 °F 93% 29.94 in 2.5 mi NNW 4.6 mph - 0.00 in Snow Light Snow
11:26 PM 17.6 °F 10.7 °F 15.8 °F 93% 29.94 in 3.0 mi NNW 4.6 mph - 0.00 in Snow Light Snow
11:48 PM 17.6 °F - 15.8 °F 93% 29.94 in 1.8 mi Calm Calm - 0.00 in Snow Light Snow
11:53 PM 18.0 °F 12.7 °F 15.1 °F 88% 30.04 in 2.0 mi North 3.5 mph - 0.00 in Snow Light Snow